DW7888 Weather Reports


time (UTC)temp
F
wind
direction
speed
knots
gust
knots
rain 1hr
in
rain 24hr
in
rain mn
in
humidity
%
barometer
mb
20260509114517 57 159 0.9 8.7 0.00 0.00 0.00 84 1013.2
20260509114006 56 168 0.9 8.7 0.00 0.00 0.00 84 1013.1
20260509113503 56 171 0.9 6.1 0.00 0.00 0.00 85 1013.0
20260509113005 55 146 1.7 6.1 0.00 0.00 0.00 85 1013.0
20260509112506 55 140 0.9 5.2 0.00 0.00 0.00 85 1013.1
20260509112004 55 236 0.9 7.0 0.00 0.00 0.00 86 1013.1
20260509111503 55 126 0.0 7.0 0.00 0.00 0.00 85 1013.0
20260509111007 54 188 2.6 7.0 0.00 0.00 0.00 86 1012.9
20260509110502 54 124 0.9 3.5 0.00 0.00 0.00 86 1013.0
20260509110006 54 165 0.9 3.5 0.00 0.00 0.00 86 1013.0
20260509105507 54 101 0.9 3.5 0.00 0.00 0.00 85 1013.0
20260509105005 54 147 0.9 4.3 0.00 0.00 0.00 85 1013.0
20260509104508 54 195 1.7 7.8 0.00 0.00 0.00 85 1013.0
20260509104006 54 136 1.7 7.8 0.00 0.00 0.00 85 1013.1
20260509103503 54 165 0.9 4.3 0.00 0.00 0.00 85 1013.0
20260509103008 53 180 0.9 4.3 0.00 0.00 0.00 85 1013.0
20260509102506 54 157 0.0 2.6 0.00 0.00 0.00 85 1013.0
20260509102005 54 177 0.0 2.6 0.00 0.00 0.00 85 1013.0
20260509101510 54 226 0.0 7.0 0.00 0.00 0.00 84 1012.9
20260509101007 54 183 1.7 7.0 0.00 0.00 0.00 85 1012.8
20260509100503 53 175 0.9 5.2 0.00 0.00 0.00 85 1012.8
20260509100008 53 211 0.0 7.0 0.00 0.00 0.00 84 1012.9
20260509095510 53 144 0.0 7.0 0.00 0.00 0.00 84 1012.9
20260509095005 53 117 0.0 2.6 0.00 0.00 0.00 84 1012.9
20260509094507 53 130 0.9 4.3 0.00 0.00 0.00 84 1012.9
20260509094009 54 82 1.7 5.2 0.00 0.00 0.00 83 1012.9
20260509093502 54 181 0.9 5.2 0.00 0.00 0.00 83 1012.9
20260509093010 54 134 0.9 2.6 0.00 0.00 0.00 83 1013.0
20260509092507 54 163 0.9 5.2 0.00 0.00 0.00 82 1013.0
20260509092002 54 168 0.0 5.2 0.00 0.00 0.00 82 1013.1
20260509091511 54 170 0.9 5.2 0.00 0.00 0.00 81 1013.0
20260509091012 54 110 0.9 5.2 0.00 0.00 0.00 81 1013.1
20260509090504 54 171 0.0 3.5 0.00 0.00 0.00 81 1013.1
20260509090031 54 215 0.0 3.5 0.00 0.00 0.00 80 1013.1
20260509085507 54 141 0.0 5.2 0.00 0.00 0.00 80 1013.0
20260509085003 54 189 0.9 5.2 0.00 0.00 0.00 79 1013.0
20260509084520 54 144 0.9 4.3 0.00 0.00 0.00 79 1012.9
20260509084010 54 150 0.9 4.3 0.00 0.00 0.00 79 1012.8
20260509083502 54 218 0.9 5.2 0.00 0.00 0.00 78 1012.9
20260509083032 54 196 0.9 5.2 0.00 0.00 0.00 78 1012.8
20260509082513 54 178 0.9 5.2 0.00 0.00 0.00 77 1012.8
20260509082009 54 197 0.9 5.2 0.00 0.00 0.00 77 1012.9
20260509081523 55 191 0.9 4.3 0.00 0.00 0.00 77 1012.7
20260509081016 55 136 0.9 4.3 0.00 0.00 0.00 76 1012.7
20260509080503 55 172 0.9 4.3 0.00 0.00 0.00 75 1012.8
20260509080016 55 171 0.0 5.2 0.00 0.00 0.00 74 1012.9
20260509075510 56 102 0.9 5.2 0.00 0.00 0.00 74 1013.0
20260509075006 56 180 0.0 1.7 0.00 0.00 0.00 73 1013.0
20260509074529 56 144 0.0 1.7 0.00 0.00 0.00 73 1013.1
20260509074006 56 159 0.0 1.7 0.00 0.00 0.00 72 1013.1
20260509073506 56 35 0.0 1.7 0.00 0.00 0.00 72 1013.1
20260509073019 57 200 0.0 2.6 0.00 0.00 0.00 72 1013.2
20260509072514 57 326 0.0 3.5 0.00 0.00 0.00 72 1013.1
20260509072003 57 173 0.9 7.0 0.00 0.00 0.00 71 1013.1
20260509071522 57 196 1.7 7.0 0.00 0.00 0.00 72 1013.1
20260509071004 57 149 1.7 6.1 0.00 0.00 0.00 71 1013.2
20260509070506 57 206 1.7 6.1 0.00 0.00 0.00 71 1013.2
20260509070018 57 107 1.7 6.1 0.00 0.00 0.00 71 1013.3
20260509065504 57 173 0.9 6.1 0.00 0.00 0.00 71 1013.4
20260509065006 57 167 0.9 6.1 0.00 0.00 0.00 71 1013.5
20260509064520 56 109 1.7 6.1 0.00 0.00 0.00 71 1013.6
20260509064005 56 221 0.9 4.3 0.00 0.00 0.00 71 1013.7
20260509063506 56 151 1.7 5.2 0.00 0.00 0.00 71 1013.8
20260509063019 56 148 0.9 6.1 0.00 0.00 0.00 71 1013.9
20260509062503 56 132 1.7 6.1 0.00 0.00 0.00 70 1014.0
20260509062008 56 112 0.9 3.5 0.00 0.00 0.00 69 1014.1
20260509061522 56 155 0.9 4.3 0.00 0.00 0.00 69 1014.2
20260509061003 56 154 0.9 4.3 0.00 0.00 0.00 68 1014.2
20260509060507 56 149 1.7 6.1 0.00 0.00 0.00 67 1014.3
20260509060022 57 156 0.0 6.1 0.00 0.00 0.00 67 1014.3
20260509055503 57 176 1.7 6.1 0.00 0.00 0.00 67 1014.2
20260509055004 56 162 1.7 5.2 0.00 0.00 0.00 67 1014.2
20260509054524 57 163 0.9 5.2 0.00 0.00 0.00 66 1014.2
20260509054007 57 132 0.9 7.0 0.00 0.00 0.00 66 1014.2
20260509053507 57 161 1.7 7.0 0.00 0.00 0.00 65 1014.3
20260509053035 57 185 0.9 5.2 0.00 0.00 0.00 65 1014.2
20260509052506 58 115 1.7 5.2 0.00 0.00 0.00 64 1014.1
20260509052007 58 117 1.7 5.2 0.00 0.00 0.00 63 1014.0
20260509051524 58 157 0.9 5.2 0.00 0.00 0.00 63 1013.9
20260509051009 58 169 0.0 6.1 0.00 0.00 0.00 62 1013.8
20260509050511 58 160 1.7 6.1 0.00 0.00 0.00 62 1013.8
20260509050045 58 150 0.9 4.3 0.00 0.00 0.00 62 1013.8
20260509045503 59 165 0.9 6.1 0.00 0.00 0.00 61 1013.8
20260509045009 59 162 0.9 6.1 0.00 0.00 0.00 61 1013.8
20260509044524 59 158 1.7 6.1 0.00 0.00 0.00 61 1013.7
20260509044011 59 155 1.7 7.0 0.00 0.00 0.00 61 1013.7
20260509043510 59 167 0.9 7.0 0.00 0.00 0.00 61 1013.8
20260509043035 59 165 0.9 5.2 0.00 0.00 0.00 60 1013.7
20260509042509 59 127 0.9 3.5 0.00 0.00 0.00 60 1013.7
20260509042010 59 149 0.9 7.0 0.00 0.00 0.00 60 1013.8
20260509041528 59 187 1.7 7.0 0.00 0.00 0.00 59 1013.9
20260509041009 59 126 0.9 4.3 0.00 0.00 0.00 59 1013.9
20260509040510 59 193 0.0 4.3 0.00 0.00 0.00 60 1013.9
20260509040025 59 190 1.7 5.2 0.00 0.00 0.00 58 1013.9
20260509035505 60 136 1.7 5.2 0.00 0.00 0.00 58 1013.9
20260509035009 60 153 0.9 6.1 0.00 0.00 0.00 58 1014.0
20260509034528 60 153 0.9 6.1 0.00 0.00 0.00 57 1014.0
20260509034005 60 155 1.7 7.8 0.00 0.00 0.00 57 1014.1
20260509033514 60 205 1.7 7.8 0.00 0.00 0.00 56 1014.1
20260509033036 60 126 1.7 7.8 0.00 0.00 0.00 56 1014.3
20260509032507 60 182 2.6 7.8 0.00 0.00 0.00 56 1014.4
20260509032009 60 156 0.9 4.3 0.00 0.00 0.00 56 1014.4
20260509031531 60 148 0.9 3.5 0.00 0.00 0.00 56 1014.3
20260509031007 60 165 0.9 6.1 0.00 0.00 0.00 55 1014.4
20260509030514 60 197 0.9 6.1 0.00 0.00 0.00 55 1014.2
20260509030017 61 156 0.9 4.3 0.00 0.00 0.00 54 1014.2
20260509025507 61 195 0.9 4.3 0.00 0.00 0.00 54 1014.2
20260509025002 61 115 1.7 5.2 0.00 0.00 0.00 54 1014.3
20260509024509 61 150 0.9 5.2 0.00 0.00 0.00 53 1014.4
20260509024011 61 153 0.9 5.2 0.00 0.00 0.00 54 1014.3
20260509023503 60 157 0.9 3.5 0.00 0.00 0.00 54 1014.4
20260509023012 61 166 0.9 5.2 0.00 0.00 0.00 54 1014.3
20260509022507 61 104 0.9 5.2 0.00 0.00 0.00 54 1014.3
20260509022002 61 150 1.7 5.2 0.00 0.00 0.00 53 1014.2
20260509021512 61 155 0.9 4.3 0.00 0.00 0.00 53 1014.3
20260509021008 61 138 0.9 3.5 0.00 0.00 0.00 52 1014.3
20260509020503 61 153 0.9 3.5 0.00 0.00 0.00 52 1014.3
20260509020014 61 207 0.9 3.5 0.00 0.00 0.00 52 1014.3
20260509015510 61 174 0.9 3.5 0.00 0.00 0.00 52 1014.3
20260509015010 60 159 0.9 3.5 0.00 0.00 0.00 52 1014.1
20260509014513 60 176 0.9 3.5 0.00 0.00 0.00 53 1014.1
20260509014002 60 157 0.9 4.3 0.00 0.00 0.00 52 1014.1
20260509013502 60 151 0.0 4.3 0.00 0.00 0.00 54 1014.1
20260509013014 59 158 0.9 1.7 0.00 0.00 0.00 55 1014.1
20260509012502 59 120 0.0 1.7 0.00 0.00 0.00 56 1014.0
20260509012003 59 150 0.9 1.7 0.00 0.00 0.00 56 1014.0
20260509011517 59 144 0.0 1.7 0.00 0.00 0.00 58 1013.9
20260509011005 59 161 0.0 1.7 0.00 0.00 0.00 56 1013.9
20260509010503 60 165 0.0 0.0 0.00 0.00 0.00 56 1013.9
20260509010017 60 165 0.0 0.0 0.00 0.00 0.00 55 1013.9
20260509005503 61 165 0.0 0.0 0.00 0.00 0.00 53 1013.8
20260509005006 61 155 0.0 0.0 0.00 0.00 0.00 52 1013.9
20260509004518 61 155 0.0 0.0 0.00 0.00 0.00 51 1013.9
20260509004003 62 155 0.0 0.0 0.00 0.00 0.00 50 1013.9
20260509003506 63 155 0.0 0.0 0.00 0.00 0.00 49 1014.0
20260509003021 63 155 0.0 0.0 0.00 0.00 0.00 47 1013.9
20260509002502 64 155 0.0 0.0 0.00 0.00 0.00 46 1013.9
20260509002010 64 155 0.0 0.0 0.00 0.00 0.00 45 1013.8
20260509001520 65 154 0.0 0.9 0.00 0.00 0.00 43 1013.8
20260509001005 65 154 0.0 2.6 0.00 0.00 0.00 43 1013.7
20260509000507 65 161 0.0 2.6 0.00 0.00 0.00 42 1013.7
20260509000035 66 150 0.0 3.5 0.00 0.00 0.00 41 1013.6
20260508235503 66 135 0.0 3.5 0.00 0.00 0.00 42 1013.4
20260508235007 66 173 0.9 2.6 0.00 0.00 0.00 41 1013.4
20260508234522 67 120 0.9 6.1 0.00 0.00 0.00 41 1013.4
20260508234003 67 178 0.9 6.1 0.00 0.00 0.00 40 1013.3
20260508233508 67 185 0.9 2.6 0.00 0.00 0.00 41 1013.2
20260508233022 67 155 0.0 2.6 0.00 0.00 0.00 41 1013.2
20260508232502 68 155 0.0 5.2 0.00 0.00 0.00 41 1013.1
20260508232006 68 85 0.9 5.2 0.00 0.00 0.00 41 1013.1
20260508231524 68 164 0.0 4.3 0.00 0.00 0.00 40 1013.1
20260508231005 68 152 0.0 6.1 0.00 0.00 0.00 39 1013.0
20260508230507 68 190 0.9 6.1 0.00 0.00 0.00 40 1013.0
20260508230022 68 196 1.7 6.1 0.00 0.00 0.00 40 1013.0
20260508225503 68 134 0.9 3.5 0.00 0.00 0.00 40 1013.0
20260508225009 68 88 0.0 3.5 0.00 0.00 0.00 41 1013.0
20260508224547 69 323 0.9 7.0 0.00 0.00 0.00 39 1012.9
20260508224006 69 150 0.0 7.0 0.00 0.00 0.00 39 1013.0
20260508223506 69 99 2.6 7.0 0.00 0.00 0.00 38 1013.0
20260508223025 69 133 0.9 5.2 0.00 0.00 0.00 37 1013.0
20260508222504 69 116 0.9 5.2 0.00 0.00 0.00 39 1013.0
20260508222011 69 195 0.0 3.5 0.00 0.00 0.00 37 1013.1
20260508221531 69 142 0.9 5.2 0.00 0.00 0.00 36 1013.2
20260508221008 69 123 0.0 5.2 0.00 0.00 0.00 37 1013.3
20260508220506 69 126 0.9 5.2 0.00 0.00 0.00 36 1013.4
20260508220031 70 28 0.9 4.3 0.00 0.00 0.00 38 1013.4
20260508215507 70 201 0.0 2.6 0.00 0.00 0.00 38 1013.4
20260508215006 70 130 0.0 2.6 0.00 0.00 0.00 37 1013.4
20260508214535 70 100 0.9 2.6 0.00 0.00 0.00 37 1013.4
20260508214006 70 133 0.0 4.3 0.00 0.00 0.00 38 1013.4
20260508213507 70 132 0.9 4.3 0.00 0.00 0.00 38 1013.4
20260508213032 70 317 0.9 5.2 0.00 0.00 0.00 38 1013.4
20260508212507 70 40 0.0 5.2 0.00 0.00 0.00 35 1013.4
20260508212009 70 146 1.7 4.3 0.00 0.00 0.00 35 1013.5
20260508211527 70 21 0.0 2.6 0.00 0.00 0.00 34 1013.3
20260508211007 70 360 0.0 3.5 0.00 0.00 0.00 38 1013.3
20260508210510 70 114 0.9 3.5 0.00 0.00 0.00 34 1013.3
20260508210028 71 235 0.0 3.5 0.00 0.00 0.00 38 1013.3
20260508205507 71 355 0.9 4.3 0.00 0.00 0.00 36 1013.4
20260508205009 71 205 0.9 6.1 0.00 0.00 0.00 37 1013.5
20260508204528 71 88 1.7 6.1 0.00 0.00 0.00 34 1013.5
20260508204006 71 52 0.9 6.1 0.00 0.00 0.00 34 1013.6
20260508203514 71 350 0.9 6.1 0.00 0.01 0.00 36 1013.7
20260508203028 71 163 0.9 7.0 0.00 0.02 0.00 37 1013.7
20260508202507 71 177 0.9 7.0 0.00 0.03 0.00 37 1013.7
20260508202012 71 130 3.5 7.0 0.00 0.04 0.00 34 1013.7
20260508201509 71 189 0.0 7.8 0.00 0.05 0.00 38 1013.7
20260508201008 70 90 0.9 7.8 0.00 0.06 0.00 38 1013.8
20260508200507 71 327 2.6 7.8 0.00 0.06 0.00 35 1013.8
20260508200027 71 15 0.9 5.2 0.00 0.07 0.00 38 1014.0
20260508195509 71 107 0.0 8.7 0.00 0.07 0.00 36 1014.0
20260508195009 71 30 0.9 8.7 0.00 0.07 0.00 35 1013.9
20260508194514 71 178 0.9 6.1 0.00 0.09 0.00 45 1014.0
20260508194011 70 134 1.7 6.1 0.00 0.11 0.00 36 1014.0
20260508193509 71 181 1.7 7.0 0.00 0.11 0.00 36 1014.1
20260508193024 70 144 1.7 7.0 0.00 0.11 0.00 39 1014.2
20260508192515 70 42 0.9 5.2 0.00 0.11 0.00 39 1014.1
20260508192014 69 154 1.7 4.3 0.00 0.11 0.00 37 1014.4
20260508191512 70 5 2.6 5.2 0.00 0.11 0.00 38 1014.5
20260508191007 69 30 0.9 5.2 0.00 0.11 0.00 35 1014.6
20260508190515 70 355 1.7 5.2 0.00 0.11 0.00 37 1014.7
20260508190018 70 218 0.0 3.5 0.00 0.11 0.00 38 1014.9
20260508185507 70 190 0.9 3.5 0.00 0.11 0.00 35 1014.9
20260508185010 69 160 0.9 3.5 0.00 0.11 0.00 37 1015.0
20260508184524 69 50 0.9 3.5 0.00 0.11 0.00 40 1015.2
20260508184009 69 30 0.0 3.5 0.00 0.11 0.00 41 1015.1
20260508183512 69 140 0.9 5.2 0.00 0.11 0.00 36 1015.1
20260508183017 68 175 0.9 5.2 0.00 0.11 0.00 37 1015.2
20260508182507 68 150 0.9 4.3 0.00 0.11 0.00 35 1015.2
20260508182013 69 132 0.0 2.6 0.00 0.11 0.00 41 1015.3
20260508181516 70 148 0.9 2.6 0.00 0.11 0.00 39 1015.4
20260508181013 69 117 0.9 3.5 0.00 0.11 0.00 46 1015.4
20260508180510 68 177 0.0 5.2 0.00 0.11 0.00 43 1015.5
20260508180012 68 158 0.9 5.2 0.00 0.11 0.00 44 1015.6
20260508175504 68 9 1.7 5.2 0.00 0.11 0.00 43 1015.6
20260508175006 68 29 0.9 5.2 0.00 0.11 0.00 39 1015.6
20260508174510 68 329 0.9 5.2 0.00 0.11 0.00 46 1015.7
20260508174001 67 147 0.9 7.0 0.00 0.11 0.00 41 1015.6
20260508173505 68 229 0.9 7.0 0.00 0.11 0.00 38 1015.8
20260508173017 67 146 2.6 6.1 0.00 0.11 0.00 37 1015.9
20260508172504 68 192 0.9 4.3 0.00 0.11 0.00 39 1016.0
20260508172005 67 56 0.9 4.3 0.00 0.11 0.00 44 1016.1
20260508171528 68 130 0.9 4.3 0.00 0.11 0.00 44 1016.2
20260508171005 67 195 0.9 6.1 0.00 0.11 0.00 40 1016.3
20260508170504 67 166 1.7 6.1 0.00 0.11 0.00 45 1016.4
20260508170012 67 169 0.0 6.1 0.00 0.11 0.00 48 1016.4
20260508165503 66 159 0.9 6.1 0.00 0.11 0.00 46 1016.5
20260508165004 67 215 0.9 4.3 0.00 0.11 0.00 42 1016.6
20260508164518 66 138 1.7 4.3 0.00 0.11 0.00 45 1016.6
20260508164004 66 149 0.9 5.2 0.00 0.11 0.00 43 1016.8
20260508163509 66 108 0.9 5.2 0.00 0.11 0.00 44 1016.9
20260508163015 66 144 0.0 3.5 0.00 0.11 0.00 44 1017.0
20260508162506 65 343 0.9 3.5 0.00 0.11 0.00 45 1017.1
20260508162006 65 360 0.9 3.5 0.00 0.11 0.00 41 1017.3
20260508161523 65 127 0.9 3.5 0.00 0.11 0.00 51 1017.3
20260508161002 65 184 0.0 5.2 0.00 0.11 0.00 44 1017.3
20260508160505 64 237 0.9 5.2 0.00 0.11 0.00 50 1017.4
20260508160020 62 63 0.9 5.2 0.00 0.11 0.00 46 1017.4
20260508155505 64 109 1.7 5.2 0.00 0.11 0.00 52 1017.5
20260508155009 64 226 0.0 4.3 0.00 0.11 0.00 51 1017.5
20260508154516 64 30 0.0 3.5 0.00 0.11 0.00 48 1017.5
20260508154003 63 144 0.0 3.5 0.00 0.11 0.00 49 1017.5
20260508153507 62 144 0.9 3.5 0.00 0.11 0.00 53 1017.5
20260508153015 61 78 0.9 3.5 0.00 0.11 0.00 52 1017.6
20260508152505 61 48 1.7 3.5 0.00 0.11 0.00 47 1017.6
20260508152008 61 67 0.0 2.6 0.00 0.11 0.00 51 1017.7
20260508151515 60 5 0.0 2.6 0.00 0.11 0.00 54 1017.6
20260508151008 60 40 0.9 2.6 0.00 0.11 0.00 50 1017.7
20260508150508 60 15 0.9 4.3 0.00 0.11 0.00 60 1017.7
20260508150022 60 355 1.7 4.3 0.00 0.11 0.00 51 1017.7
20260508145505 61 334 0.9 2.6 0.00 0.11 0.00 52 1017.8
20260508145006 60 287 0.0 2.6 0.00 0.11 0.00 58 1017.7
20260508144505 60 49 0.0 2.6 0.00 0.11 0.00 58 1017.8
20260508144004 59 64 1.7 2.6 0.00 0.11 0.00 52 1017.7
20260508143506 59 329 0.9 2.6 0.00 0.11 0.00 59 1017.7
20260508143016 59 26 0.9 2.6 0.00 0.11 0.00 59 1017.8
20260508142504 59 5 0.0 3.5 0.00 0.11 0.00 62 1017.8
20260508142008 59 315 0.0 3.5 0.00 0.11 0.00 64 1017.8
20260508141514 58 329 0.9 3.5 0.00 0.11 0.00 64 1017.7
20260508141008 57 35 1.7 3.5 0.00 0.11 0.00 66 1017.8
20260508140506 57 19 0.9 2.6 0.00 0.11 0.00 68 1017.8
20260508140006 56 30 0.0 2.6 0.00 0.11 0.00 76 1017.6
20260508135507 56 101 0.0 2.6 0.00 0.11 0.00 78 1017.7
20260508135011 55 94 0.0 2.6 0.00 0.11 0.00 82 1017.7
20260508134506 54 92 0.0 0.9 0.00 0.11 0.00 84 1017.8
20260508134006 54 5 0.0 0.9 0.00 0.11 0.00 84 1017.8
20260508133509 53 64 0.0 0.9 0.00 0.11 0.00 87 1017.7
20260508133009 52 355 0.0 0.9 0.00 0.11 0.00 90 1017.7
20260508132505 52 83 0.0 0.9 0.00 0.11 0.00 93 1017.7
20260508132008 51 142 0.0 0.9 0.00 0.11 0.00 94 1017.7
20260508131508 51 332 0.0 1.7 0.00 0.11 0.00 95 1017.8
20260508131012 50 338 0.0 1.7 0.00 0.11 0.00 96 1017.9
20260508130507 50 355 0.0 0.9 0.00 0.11 0.00 96 1017.9
20260508130014 50 309 0.0 2.6 0.00 0.11 0.00 96 1017.9
20260508125511 49 336 0.0 2.6 0.00 0.11 0.00 96 1017.9
20260508125009 49 336 0.9 2.6 0.00 0.11 0.00 96 1017.9
20260508124513 49 39 0.9 1.7 0.00 0.11 0.00 97 1017.9
20260508124011 48 51 0.0 1.7 0.00 0.11 0.00 97 1017.8
20260508123509 48 18 0.0 1.7 0.00 0.11 0.00 97 1017.7
20260508123013 48 28 0.0 2.6 0.00 0.11 0.00 97 1017.7
20260508122509 47 24 0.0 2.6 0.00 0.11 0.00 97 1017.7
20260508122011 47 322 0.9 2.6 0.00 0.11 0.00 97 1017.7
20260508121518 47 350 0.0 1.7 0.00 0.11 0.00 97 1017.5
20260508121008 46 350 0.0 0.0 0.00 0.11 0.00 97 1017.5
20260508120507 46 350 0.0 0.0 0.00 0.11 0.00 97 1017.3
20260508120019 45 350 0.0 0.0 0.00 0.11 0.00 97 1017.2
20260508115502 45 350 0.0 0.0 0.00 0.11 0.00 96 1017.1
20260508115002 44 350 0.0 0.0 0.00 0.11 0.00 96 1017.1